Tracking 30157 objects as of 13-Feb-2025
HD Live streaming from Space Station
objects crossing your sky now

STARLINK-4348

Track STARLINK-4348 now!
10-day predictions
STARLINK-4348 is classified as:


NORAD ID: 53075
Int'l Code: 2022-077AJ
Perigee: 569.7 km
Apogee: 570.6 km
Inclination: 97.7 °
Period: 95.9 minutes
Semi major axis: 6941 km
RCS: Unknown
Launch date: July 11, 2022
Source: United States (US)
Launch site: AIR FORCE WESTERN TEST RANGE (AFWTR)
Your satellite tracking list
Your tracking list is empty




NASA's NSSDC Master Catalog

Two Line Element Set (TLE):
1 53075U 22077AJ  25043.41539453  .00000432  00000-0  38241-4 0  9997
2 53075  97.6542 226.8019 0000609 218.4605 141.6576 15.01260262142365
Source of the keplerian elements: AFSPC